Retour au catalogue

KUIPER-00537

ActifCommunicationsLEO
NORAD 69607·PAYLOAD·🇺🇸 United States

Lancé Jun 17, 2026 depuis Guiana Space Centre

Loading…

Prochains Passages (prochaines 24 heures)

TLE

FraisSource: CelesTrak SupGP

Époque: Sep 14, 2026, 22:35 UTC

1 69607C 26140R   26257.94137732  .00002108  00000+0  27592-3 0  2574
2 69607  51.9010 343.6991 0000557 347.9197 283.3632 14.79926243    13

Suivez KUIPER-00537 en temps réel avec AllMySat

Download on the App Store